Total_Precipitation_Accumulation
1.40 1.32 1.27 1.12 1.01 0.85 0.70 0.69 0.73 0.66 0.64 0.59 0.49 0.44 0.43 0.38 0.33 0.32 0.33 0.36 0.39 0.56 0.74 0.85 0.83 0.80 0.81 0.83 0.85 0.85 0.77 0.70 0.66 0.64 0.59 0.54 0.54 0.52 0.52 0.49 0.46 0.44 0.47
1.56 1.47 1.35 1.19 1.09 0.96 0.80 0.70 0.71 0.75 0.74 0.72 0.64 0.56 0.53 0.47 0.38 0.37 0.35 0.37 0.41 0.48 0.64 0.75 0.83 0.92 1.00 1.02 1.02 0.99 0.90 0.81 0.76 0.72 0.69 0.65 0.60 0.59 0.58 0.55 0.52 0.51 0.52
1.68 1.63 1.49 1.28 1.16 1.14 1.02 0.91 0.87 0.88 0.81 0.71 0.62 0.60 0.59 0.52 0.45 0.42 0.39 0.39 0.39 0.43 0.55 0.69 0.75 0.88 1.07 1.17 1.19 1.17 1.06 0.91 0.86 0.82 0.76 0.72 0.68 0.67 0.71 0.72 0.65 0.58 0.55
1.84 1.81 1.67 1.45 1.44 1.50 1.35 1.16 1.04 0.95 0.86 0.78 0.68 0.66 0.61 0.55 0.48 0.47 0.45 0.41 0.38 0.40 0.51 0.67 0.71 0.81 0.96 1.11 1.23 1.28 1.23 1.11 1.01 0.93 0.85 0.79 0.73 0.72 0.77 0.81 0.79 0.72 0.71
1.86 1.83 1.75 1.65 1.66 1.67 1.58 1.40 1.27 1.17 1.01 0.92 0.85 0.82 0.80 0.74 0.65 0.58 0.52 0.52 0.48 0.49 0.60 0.73 0.77 0.81 0.82 0.89 1.05 1.18 1.22 1.18 1.07 0.97 0.91 0.85 0.78 0.77 0.79 0.83 0.81 0.79 0.79
1.83 1.81 1.72 1.75 1.80 1.75 1.67 1.61 1.45 1.34 1.24 1.18 1.10 0.97 0.94 0.93 0.82 0.67 0.59 0.57 0.57 0.58 0.68 0.75 0.76 0.78 0.78 0.71 0.79 0.99 1.15 1.22 1.16 1.05 0.98 0.91 0.86 0.85 0.87 0.89 0.89 0.86 0.84
2.07 1.98 1.79 1.79 1.86 1.72 1.61 1.66 1.70 1.65 1.55 1.44 1.38 1.19 1.07 0.99 0.90 0.72 0.60 0.58 0.59 0.64 0.68 0.72 0.74 0.68 0.61 0.56 0.59 0.71 0.91 1.10 1.16 1.15 1.07 0.99 0.97 0.97 1.00 1.04 1.06 1.04 1.03
2.10 2.08 2.05 1.95 1.99 1.97 1.86 1.76 1.77 1.81 1.74 1.70 1.65 1.57 1.34 1.16 0.94 0.77 0.66 0.61 0.62 0.67 0.68 0.67 0.65 0.64 0.57 0.52 0.49 0.54 0.70 0.95 1.12 1.22 1.20 1.14 1.10 1.11 1.16 1.23 1.25 1.21 1.22
2.15 2.08 2.10 2.13 2.12 2.11 2.00 1.89 1.82 1.81 1.83 1.77 1.73 1.83 1.55 1.20 0.95 0.83 0.71 0.66 0.64 0.65 0.67 0.69 0.66 0.63 0.59 0.56 0.52 0.54 0.58 0.73 0.99 1.28 1.47 1.48 1.41 1.36 1.37 1.42 1.45 1.44 1.38
2.18 2.16 2.11 2.10 2.15 2.12 2.02 2.01 2.00 1.87 1.88 1.88 1.83 1.70 1.50 1.25 1.15 0.99 0.85 0.78 0.72 0.68 0.67 0.67 0.65 0.62 0.62 0.60 0.59 0.61 0.65 0.71 0.91 1.24 1.56 1.71 1.69 1.65 1.71 1.79 1.83 1.78 1.66
2.18 2.11 2.10 2.07 2.05 2.07 2.05 2.05 2.07 2.05 1.96 1.89 1.83 1.77 1.70 1.49 1.30 1.24 1.08 0.95 0.92 0.83 0.76 0.73 0.72 0.69 0.65 0.65 0.62 0.68 0.75 0.79 0.94 1.18 1.46 1.68 1.82 1.88 1.97 2.05 2.10 2.08 1.96
2.16 2.05 2.03 1.99 1.98 1.97 1.97 2.02 2.08 2.13 2.08 1.94 1.82 1.69 1.65 1.58 1.43 1.37 1.25 1.07 1.04 0.95 0.90 0.85 0.81 0.79 0.79 0.79 0.80 0.93 0.92 0.94 1.03 1.17 1.42 1.66 1.81 1.90 2.03 2.18 2.27 2.26 2.21
2.23 2.01 1.97 1.98 1.98 1.93 1.96 2.08 2.14 2.13 2.13 2.06 1.97 1.84 1.72 1.58 1.50 1.53 1.52 1.31 1.16 1.02 0.99 0.97 0.92 0.89 0.90 0.94 0.98 1.14 1.09 1.10 1.13 1.22 1.46 1.72 1.78 1.80 1.84 1.95 2.14 2.22 2.24
2.28 2.20 2.11 2.06 2.06 2.06 2.01 2.02 2.02 2.00 2.04 2.02 1.96 1.87 1.78 1.64 1.61 1.62 1.63 1.70 1.58 1.29 1.14 1.06 0.98 0.99 1.03 1.09 1.20 1.31 1.15 1.24 1.19 1.19 1.33 1.52 1.57 1.56 1.57 1.69 1.93 2.08 2.10
1.99 2.15 2.17 2.11 2.02 2.00 1.99 1.97 1.93 1.85 1.86 1.89 1.88 1.83 1.73 1.59 1.57 1.56 1.56 1.66 1.81 1.65 1.28 1.00 0.95 0.96 1.02 1.07 1.21 1.17 1.08 1.26 1.26 1.19 1.20 1.22 1.24 1.23 1.22 1.27 1.42 1.61 1.70
1.60 1.76 1.92 1.98 1.96 1.91 1.88 1.88 1.86 1.77 1.76 1.68 1.66 1.70 1.66 1.56 1.48 1.48 1.53 1.59 1.67 1.74 1.50 1.03 0.89 0.91 0.99 1.04 1.17 1.05 1.00 1.20 1.19 1.16 1.13 1.09 1.08 1.06 1.05 1.06 1.11 1.25 1.36
1.39 1.48 1.59 1.69 1.73 1.77 1.76 1.76 1.71 1.68 1.67 1.61 1.55 1.53 1.50 1.49 1.52 1.48 1.49 1.55 1.62 1.68 1.63 1.20 0.98 0.97 1.08 1.11 1.13 1.05 0.99 0.99 1.00 1.16 1.10 1.05 1.01 0.98 0.97 0.98 0.99 1.03 1.09
1.20 1.22 1.30 1.38 1.43 1.44 1.47 1.50 1.51 1.51 1.51 1.51 1.46 1.44 1.40 1.39 1.41 1.42 1.47 1.50 1.54 1.57 1.59 1.40 1.11 1.01 1.02 1.03 1.04 1.04 0.99 0.94 0.89 1.06 1.07 1.04 1.00 0.95 0.92 0.91 0.94 0.95 0.96
1.22 1.13 1.11 1.15 1.19 1.22 1.23 1.24 1.26 1.28 1.30 1.30 1.33 1.34 1.32 1.35 1.39 1.38 1.39 1.37 1.35 1.36 1.41 1.40 1.20 1.01 0.95 0.94 1.00 1.01 0.96 0.92 0.85 0.91 0.97 1.02 1.02 0.99 0.97 0.94 0.96 0.95 0.91
1.16 1.17 1.07 1.00 1.02 1.07 1.12 1.14 1.15 1.16 1.18 1.21 1.24 1.26 1.27 1.29 1.28 1.28 1.33 1.33 1.30 1.29 1.28 1.32 1.25 1.12 1.04 1.00 1.06 1.09 1.07 0.98 0.93 0.86 0.91 0.94 1.02 1.03 0.96 0.88 0.85 0.87 0.89
1.04 1.10 1.07 1.00 0.96 0.97 1.03 1.07 1.09 1.11 1.11 1.15 1.17 1.18 1.22 1.32 1.36 1.31 1.29 1.28 1.30 1.36 1.38 1.41 1.34 1.19 1.05 1.00 1.00 0.97 1.01 1.01 1.01 0.96 0.94 0.88 0.82 0.79 0.81 0.82 0.82 0.84 0.90
0.95 1.04 1.07 1.06 1.05 1.06 1.26 1.25 1.15 1.12 1.14 1.13 1.11 1.08 1.09 1.15 1.17 1.22 1.22 1.20 1.27 1.38 1.48 1.49 1.35 1.12 0.93 0.85 0.83 0.90 1.01 1.10 1.07 0.85 0.81 0.85 0.80 0.81 0.76 0.73 0.85 0.86 0.87
1.00 1.08 1.15 1.18 1.17 1.23 1.36 1.27 1.24 1.11 1.09 1.10 1.07 1.02 0.98 0.96 1.00 0.92 1.01 1.07 1.09 1.20 1.24 1.15 1.07 0.92 0.83 0.81 0.93 1.03 1.01 1.01 0.89 0.76 0.82 0.92 0.87 0.86 0.78 0.79 0.89 0.83 0.84
1.20 1.26 1.33 1.35 1.35 1.34 1.36 1.27 1.27 1.08 1.00 0.96 0.91 0.85 0.81 0.77 0.78 0.84 0.87 0.94 0.89 0.87 0.88 0.84 0.81 0.77 0.76 0.81 0.96 1.12 1.13 1.13 0.98 0.85 0.84 0.93 0.83 0.81 0.79 0.80 0.88 0.84 0.84
1.31 1.28 1.28 1.28 1.26 1.23 1.23 1.15 1.10 0.96 0.91 0.84 0.77 0.73 0.72 0.67 0.78 0.90 0.88 0.89 0.78 0.71 0.78 0.86 0.91 0.91 0.97 0.98 0.99 1.16 1.30 1.39 1.25 0.93 0.76 0.80 0.76 0.71 0.76 0.77 0.80 0.85 0.82
1.08 1.04 1.01 0.98 0.96 0.93 0.97 0.95 0.94 0.86 0.81 0.75 0.70 0.67 0.75 0.72 0.83 0.90 0.82 0.80 0.76 0.67 0.67 0.74 0.80 0.84 0.83 0.89 1.00 0.97 1.14 1.43 1.32 1.04 0.69 0.74 0.80 0.87 1.07 0.81 0.69 0.70 0.73